Weather History for KMVY - February, 2014

Change the Weather History Date:

Sunday, February 23, 2014

  Actual Average Record
Temperature  
Mean Temperature 42 °F -  
Max Temperature 52 °F 43 °F 60 °F (1991)
Min Temperature 32 °F 27 °F 5 °F (1972)
Degree Days  
Heating Degree Days 23    
Moisture  
Dew Point 36 °F    
Average Humidity 77    
Maximum Humidity 97    
Minimum Humidity 53    
Precipitation  
Precipitation 0.00 in - - ()
Sea Level Pressure  
Sea Level Pressure 29.93 in    
Wind  
Wind Speed 9 mph (SW)    
Max Wind Speed 14 mph    
Max Gust Speed 23 mph    
Visibility 10 miles    
Events      
Averages and records for this station are not official NWS values.
T = Trace of Precipitation, MM = Missing Value Source: NWS Daily Summary

Daily Weather History Graph

Daily Weather History Graph

Search for Another Location

Airport or City:

Trip Planner

Search our weather history database for the weather conditions in past years. The results will help you decide how hot, cold, wet, or windy it might be!

Date:

Astronomy

Feb. 23, 2014 Rise Set
Actual Time 6:26 AM EST 5:26 PM EST
Civil Twilight 5:58 AM EST 5:54 PM EST
Nautical Twilight 5:26 AM EST 6:26 PM EST
Astronomical Twilight 4:54 AM EST 6:58 PM EST
Moon 1:23 AM EST (2/23) 11:23 AM EST (2/23)
Length of Visible Light 11h 55m
Length of Day
10h 59m
Last Quarter, 39% of the Moon is Illuminated
Feb 23
Last Quarter
Mar 1
New
Mar 8
First Quarter
Mar 16
Full
Mar 23
Last Quarter

Hourly Weather History & Observations

Time (EST) Temp. Windchill Dew Point Humidity Pressure Visibility Wind Dir Wind Speed Gust Speed Precip Events Conditions
12:53 AM 43.0 °F 36.8 °F 35.1 °F 74% 30.04 in 10.0 mi SW 11.5 mph 19.6 mph N/A   Clear
1:53 AM 43.0 °F 37.7 °F 36.0 °F 76% 30.03 in 10.0 mi SW 9.2 mph - N/A   Clear
2:53 AM 42.1 °F 36.6 °F 36.0 °F 79% 30.03 in 10.0 mi SW 9.2 mph - N/A   Clear
3:53 AM 42.1 °F 36.6 °F 36.0 °F 79% 30.03 in 10.0 mi SW 9.2 mph - N/A   Clear
4:53 AM 39.9 °F 34.5 °F 36.0 °F 86% 30.03 in 10.0 mi SW 8.1 mph - N/A   Clear
5:53 AM 39.9 °F 33.9 °F 37.0 °F 89% 30.02 in 10.0 mi SW 9.2 mph - N/A   Clear
6:53 AM 42.1 °F 37.1 °F 37.9 °F 85% 30.02 in 10.0 mi SW 8.1 mph - N/A   Clear
7:53 AM 46.0 °F 40.6 °F 39.0 °F 76% 30.01 in 10.0 mi SW 11.5 mph - N/A   Clear
8:53 AM 46.9 °F - 39.0 °F 74% 30.01 in 10.0 mi SW 12.7 mph - N/A   Clear
9:53 AM 48.9 °F - 39.0 °F 69% 30.01 in 10.0 mi SW 11.5 mph 20.7 mph N/A   Clear
10:53 AM 48.9 °F - 39.9 °F 71% 29.99 in 10.0 mi SW 11.5 mph - N/A   Clear
11:53 AM 51.1 °F - 39.9 °F 66% 29.97 in 10.0 mi WSW 12.7 mph 23.0 mph N/A   Clear
12:53 PM 50.0 °F - 39.9 °F 68% 29.93 in 10.0 mi SW 13.8 mph - N/A   Clear
1:53 PM 50.0 °F - 39.9 °F 68% 29.91 in 10.0 mi WSW 12.7 mph 19.6 mph N/A   Clear
2:53 PM 52.0 °F - 35.1 °F 53% 29.88 in 10.0 mi WSW 11.5 mph 20.7 mph N/A   Clear
3:53 PM 48.0 °F - 37.0 °F 66% 29.88 in 10.0 mi SSW 9.2 mph - N/A   Clear
4:53 PM 45.0 °F 41.2 °F 35.1 °F 68% 29.87 in 10.0 mi SW 6.9 mph - N/A   Clear
5:53 PM 37.0 °F 31.6 °F 33.1 °F 86% 29.86 in 10.0 mi SSW 6.9 mph - N/A   Clear
6:53 PM 36.0 °F 32.1 °F 33.1 °F 89% 29.84 in 10.0 mi South 4.6 mph - N/A   Clear
7:53 PM 34.0 °F 31.0 °F 30.0 °F 85% 29.83 in 10.0 mi SW 3.5 mph - N/A   Scattered Clouds
8:53 PM 32.0 °F 26.4 °F 30.0 °F 92% 29.83 in 10.0 mi WSW 5.8 mph - N/A   Clear
9:53 PM 36.0 °F 33.3 °F 35.1 °F 97% 29.82 in 10.0 mi WSW 3.5 mph - N/A   Clear
10:53 PM 35.1 °F 32.2 °F 30.9 °F 85% 29.80 in 10.0 mi West 3.5 mph - N/A   Mostly Cloudy
11:53 PM 39.0 °F 35.7 °F 30.9 °F 73% 29.78 in 10.0 mi WNW 4.6 mph - N/A   Overcast